EJU1KP LIRN-LIRF

Flight info

Callsign EJU1KP
Flight time 0h 36m
Altitude 18000
Route SIPRO Z803 LAT
Aircraft A320/M-SDE3FGHIRWY/LB1

Departure

Time 2026-05-04 16:28
Airport Naples International Airport (LIRN)

Arrival

Time 2026-05-04 17:05
Airport Rome–Fiumicino Leonardo da Vinci International Airport (LIRF)
Time Latitude Longitude Altitude Speed Heading
2026-05-04 15:40 40.87840 14.28088 295 ft 0 kts 140°
2026-05-04 16:13 40.87843 14.28084 295 ft 3 kts 140°
2026-05-04 16:14 40.87882 14.28037 295 ft 4 kts 118°
2026-05-04 16:14 40.87884 14.27997 296 ft 0 kts 51°
2026-05-04 16:19 40.87885 14.27998 296 ft 1 kts 51°
2026-05-04 16:19 40.87899 14.28022 299 ft 3 kts 51°
2026-05-04 16:20 40.87956 14.28104 296 ft 4 kts 35°
2026-05-04 16:20 40.88015 14.28145 291 ft 5 kts 34°
2026-05-04 16:21 40.88064 14.28300 291 ft 8 kts 96°
2026-05-04 16:22 40.88043 14.28517 285 ft 8 kts 98°
2026-05-04 16:22 40.88194 14.28863 277 ft 22 kts 53°
2026-05-04 16:23 40.88474 14.29352 265 ft 16 kts 53°
2026-05-04 16:24 40.88864 14.30027 244 ft 28 kts 52°
2026-05-04 16:25 40.88993 14.30172 238 ft 0 kts 340°
2026-05-04 16:26 40.88994 14.30171 238 ft 0 kts 339°
2026-05-04 16:26 40.89069 14.30097 238 ft 6 kts 287°
2026-05-04 16:27 40.89054 14.30013 240 ft 17 kts 248°
2026-05-04 16:28 40.87805 14.27341 663 ft 175 kts 240°
2026-05-04 16:28 40.88754 14.22708 2377 ft 209 kts 300°
2026-05-04 16:29 40.91777 14.15590 5036 ft 229 kts 297°
2026-05-04 16:30 40.95582 14.11905 6775 ft 263 kts 354°
2026-05-04 16:31 40.99429 14.11386 7980 ft 285 kts 353°
2026-05-04 16:31 41.05438 14.10535 10372 ft 294 kts 352°
2026-05-04 16:32 41.11208 14.06960 11664 ft 332 kts 314°
2026-05-04 16:33 41.14526 14.02595 13026 ft 341 kts 313°
2026-05-04 16:33 41.18030 13.98293 14431 ft 346 kts 318°
2026-05-04 16:34 41.21722 13.94147 15738 ft 349 kts 319°
2026-05-04 16:34 41.23590 13.92069 16389 ft 351 kts 318°
2026-05-04 16:35 41.29220 13.85713 18059 ft 356 kts 317°
2026-05-04 16:35 41.34580 13.79575 18138 ft 326 kts 317°
2026-05-04 16:36 41.36297 13.77607 18139 ft 325 kts 317°
2026-05-04 16:36 41.39165 13.74311 18139 ft 325 kts 317°
2026-05-04 16:37 41.42566 13.70345 18136 ft 324 kts 312°
2026-05-04 16:37 41.43943 13.67990 18136 ft 322 kts 299°
2026-05-04 16:37 41.45333 13.62372 18136 ft 321 kts 279°
2026-05-04 16:38 41.46066 13.56536 18135 ft 321 kts 279°
2026-05-04 16:39 41.47190 13.47707 18133 ft 326 kts 279°
2026-05-04 16:39 41.47950 13.41714 18135 ft 328 kts 279°
2026-05-04 16:40 41.48706 13.35708 18036 ft 325 kts 279°
2026-05-04 16:40 41.49432 13.29880 17504 ft 312 kts 279°
2026-05-04 16:41 41.50131 13.24243 16989 ft 305 kts 279°
2026-05-04 16:41 41.51168 13.15910 16227 ft 302 kts 279°
2026-05-04 16:42 41.52182 13.07639 15488 ft 300 kts 279°
2026-05-04 16:43 41.52848 13.02151 15010 ft 299 kts 279°
2026-05-04 16:43 41.53514 12.96689 14528 ft 297 kts 279°
2026-05-04 16:43 41.53926 12.93989 14292 ft 297 kts 287°
2026-05-04 16:44 41.59097 12.85609 13278 ft 297 kts 315°
2026-05-04 16:45 41.62108 12.81846 12759 ft 296 kts 315°
2026-05-04 16:46 41.66617 12.76208 11986 ft 295 kts 315°
2026-05-04 16:46 41.69611 12.72453 11477 ft 294 kts 314°
2026-05-04 16:47 41.72602 12.68691 10985 ft 296 kts 314°
2026-05-04 16:47 41.75606 12.64918 10504 ft 296 kts 314°
2026-05-04 16:48 41.80112 12.59244 9924 ft 297 kts 314°
2026-05-04 16:48 41.81606 12.57334 9796 ft 296 kts 313°
2026-05-04 16:49 41.84493 12.53451 9531 ft 296 kts 312°
2026-05-04 16:49 41.87355 12.49543 9267 ft 287 kts 312°
2026-05-04 16:50 41.90291 12.46184 9011 ft 275 kts 330°
2026-05-04 16:50 41.93904 12.44478 8768 ft 276 kts 341°
2026-05-04 16:51 41.97575 12.42956 8505 ft 276 kts 341°
2026-05-04 16:51 41.99407 12.42190 8379 ft 276 kts 341°
2026-05-04 16:51 42.03068 12.40666 8138 ft 275 kts 341°
2026-05-04 16:52 42.06704 12.39159 7888 ft 273 kts 341°
2026-05-04 16:52 42.08508 12.38410 7760 ft 268 kts 341°
2026-05-04 16:53 42.12013 12.36950 7513 ft 261 kts 341°
2026-05-04 16:53 42.17101 12.34819 7145 ft 254 kts 341°
2026-05-04 16:54 42.18793 12.34106 7019 ft 255 kts 341°
2026-05-04 16:55 42.25548 12.31254 6549 ft 254 kts 341°
2026-05-04 16:55 42.28736 12.29370 6298 ft 248 kts 310°
2026-05-04 16:56 42.29776 12.25253 6060 ft 231 kts 257°
2026-05-04 16:56 42.27024 12.20395 6013 ft 223 kts 219°
2026-05-04 16:57 42.25859 12.19013 6010 ft 222 kts 216°
2026-05-04 16:57 42.23415 12.16469 6018 ft 223 kts 216°
2026-05-04 16:58 42.19201 12.15520 6008 ft 219 kts 160°
2026-05-04 16:58 42.17718 12.16089 6059 ft 218 kts 167°
2026-05-04 16:59 42.14748 12.16742 6067 ft 218 kts 173°
2026-05-04 17:00 42.08737 12.17732 5391 ft 216 kts 173°
2026-05-04 17:00 42.04309 12.18427 4505 ft 212 kts 173°
2026-05-04 17:01 42.01334 12.19142 3517 ft 223 kts 165°
2026-05-04 17:01 41.98384 12.20356 2878 ft 221 kts 164°
2026-05-04 17:02 41.95472 12.21584 2285 ft 217 kts 164°
2026-05-04 17:02 41.92647 12.22774 1707 ft 204 kts 164°
2026-05-04 17:03 41.91330 12.23327 1441 ft 193 kts 164°
2026-05-04 17:03 41.90083 12.23849 1202 ft 186 kts 165°
2026-05-04 17:03 41.87799 12.24808 735 ft 159 kts 165°
2026-05-04 17:04 41.85882 12.25617 329 ft 135 kts 162°
2026-05-04 17:04 41.84102 12.26347 46 ft 132 kts 161°
2026-05-04 17:05 41.82766 12.26906 14 ft 49 kts 164°
2026-05-04 17:05 41.82301 12.27103 9 ft 10 kts 161°
2026-05-04 17:06 41.82110 12.27141 10 ft 24 kts 181°
2026-05-04 17:06 41.81961 12.27109 11 ft 17 kts 193°
2026-05-04 17:07 41.81765 12.27050 11 ft 16 kts 189°
2026-05-04 17:07 41.81689 12.27049 12 ft 17 kts 173°
2026-05-04 17:07 41.81524 12.27113 14 ft 20 kts 162°
2026-05-04 17:07 41.81383 12.27172 12 ft 22 kts 163°
2026-05-04 17:08 41.81271 12.27218 13 ft 15 kts 162°
2026-05-04 17:08 41.81130 12.27278 12 ft 14 kts 163°
2026-05-04 17:08 41.81025 12.27322 12 ft 17 kts 162°
2026-05-04 17:09 41.80903 12.27349 12 ft 19 kts 185°
2026-05-04 17:09 41.80772 12.27319 12 ft 17 kts 191°
2026-05-04 17:09 41.80689 12.27280 12 ft 14 kts 216°
2026-05-04 17:10 41.80593 12.26996 13 ft 20 kts 250°
2026-05-04 17:10 41.80447 12.26462 15 ft 17 kts 250°
2026-05-04 17:11 41.80402 12.26300 16 ft 19 kts 250°
2026-05-04 17:11 41.80379 12.26216 15 ft 10 kts 250°
2026-05-04 17:11 41.80242 12.26048 16 ft 17 kts 204°
2026-05-04 17:12 41.80123 12.25976 15 ft 20 kts 204°
2026-05-04 17:12 41.79890 12.25831 15 ft 15 kts 204°
2026-05-04 17:13 41.79695 12.25700 16 ft 6 kts 205°
2026-05-04 17:14 41.79684 12.25635 14 ft 2 kts 292°
2026-05-04 17:14 41.79688 12.25622 16 ft 1 kts 295°
2026-05-04 17:14 41.79689 12.25620 14 ft 0 kts 295°